星链-11174 (STARLINK-11174)

导读

STARLINK-11174是美国SpaceX公司星链(Starlink)星座的一员,于2024年8月10日发射入轨。星链项目旨在构建低地球轨道卫星互联网星座,为全球偏远、欠发达地区及特殊场景提供高速宽带服务,STARLINK-11174的成功发射,进一步扩充了星链星座规模,助力全球覆盖与服务能力提升,延续SpaceX构建全球卫星互联网的扩张节奏。

Basic Information
目录编号:
60409
目录名称:
STARLINK-11174
国际标识:
2024-141M
轨道中心:
EARTH
卫星名称:
星链-11174 (STARLINK-11174)
卫星全名:
星链-11174 (STARLINK-11174)
卫星状态:
在轨 (已飞行762 天)
发射日期:
2024-08-10 UTC
国别 :
美国 (US)
星等 :
--
This satellite is enrolled in the Space Conjunction Data Service (SCDS) and the current flight risk assessment level is: No High Risk
Orbit Information
数据来源 国际轨道数据 AOE轨道数据
星历时间 2026-09-11T08:46:28+0800
12小时前
查看轨道信息
2026-09-05T08:00:00+0800
6天前
查看轨道信息
半长轴 6737.865km 6737.789km
偏心率 0.0000792 0.0001338
轨道倾角 53.160° 53.156°
近地点辐角 82.478° 126.279°
升交点赤经 252.542° 282.277°
平近点角 277.632° 326.124°
近地点 359.194km 358.75km
远地点 360.262km 360.554km
周期 91.737分钟 91.735分钟
每日圈数 15.697096 15.697362
Detailed Information
卫星平台:
Starlink v2.0 mini
运营商:
太空探索技术公司
运营商所在国:
美国
制造商(研发单位):
太空探索技术公司
制造商所在国:
美国
使用方式:
暂无
Satellite Introduction
星链(Starlink)计划是由太空探索技术公司(SpaceX)提出的一个巨型低轨卫星互联网星座项目,计划在2019年至2024年间在太空搭建由约1.2万颗卫星组成的“星链”网络,其中1584颗将部署在地球上空550千米处的近地轨道,并从2020年开始工作。该卫星仍在工作。
2D Orbit Map
3D Orbit Map
Orbit Altitude Analysis Chart
Orbit Inclination Analysis Chart
Orbit Comprehensive Analysis Chart
View Comprehensive Chart
Conjunction Data List
Event ID Objects TCA Miss Dist (km) Collision Risk Probability Collision Risk Index (CRI) Action
CDM_260911-205506-040906-194421
2026-09-11T
20:55:01+0000
1.276 km
极远距离
7.227063E-6 低风险 0.52
CDM_260903-193606-040906-194421
2026-09-03T
19:36:56+0000
1.781 km
极远距离
2.527519E-6 低风险 0.43
Miss Distance Evolution Trend with All Objects
Collision Probability Evolution Trend with All Objects